Regional Weather Roundup
Issued by NWS Green Bay, WI

Home | Current Version | Previous Version | Graphics & Text | Print | Product List | Glossary Off
Versions: 1 2 3 4 5 6 7 8 9 10 11 12 13 14 15 16 17 18 19 20 21 22 23 24 25 26 27 28 29 30 31 32 33 34 35 36 37 38 39 40 41 42 43 44 45 46 47 48 49 50

000
ASUS43 KGRB 181210
RWRGRB

NORTH-CENTRAL AND NORTHEAST WISCONSIN REGIONAL WEATHER ROUNDUP
NATIONAL WEATHER SERVICE GREEN BAY WI
700 AM CDT THU SEP 18 2014

WIZ005-009-010>012-018-019-181300-
NORTH CENTRAL WISCONSIN

CITY           SKY/WX    TMP DP  RH WIND       PRES   REMARKS
IRONWOOD       CLOUDY    39  36  87 SE8       30.14F
MANITOWISH WTR CLOUDY    39  39 100 E6        30.14S
ARBOR VITAE    CLOUDY    42  39  89 E3        30.14S
EAGLE RIVER    CLOUDY    37  36  96 E5        30.16R
LAND O LAKES   CLOUDY    38  36  94 SE3       30.17R
RHINELANDER    CLOUDY    40  39  97 E7        30.16R
PHILLIPS       CLOUDY    44  42  93 E7        30.13S
ANTIGO         CLOUDY    39  38  96 E8        30.17R
TOMAHAWK       CLOUDY    44  41  91 E5        30.15R
MERRILL        CLOUDY    44  42  93 SE8       30.15R
$$

WIZ013-073-181300-
NORTHEAST WISCONSIN

CITY           SKY/WX    TMP DP  RH WIND       PRES   REMARKS
IRON MOUNTAIN  MOCLDY    40  32  73 NE3       30.18R
MARINETTE      MOCLDY    41  34  75 N7        30.18S
OCONTO         CLOUDY    42  37  82 N6        30.19R
$$

WIZ017-030-035>037-045-181300-
CENTRAL WISCONSIN

CITY           SKY/WX    TMP DP  RH WIND       PRES   REMARKS
MEDFORD        CLOUDY    45  44  95 E7        30.13R
WAUSAU         CLOUDY    44  41  89 SE9       30.15R
MOSINEE        CLOUDY    43  43 100 E8        30.16R
MARSHFIELD     CLOUDY    45  42  89 E12       30.13S
WISC RAPIDS    CLOUDY    46  43  89 E9        30.16R
STEVENS POINT  CLOUDY    42  40  91 E8        30.16R
WAUPACA        CLOUDY    46  44  90 E7        30.17R
SHAWANO        CLOUDY    44  38  79 NE8       30.19R
CLINTONVILLE   CLOUDY    43  37  81 NE7       30.18R
$$

WIZ038-039-048-051-181300-
FOX VALLEY

CITY           SKY/WX    TMP DP  RH WIND       PRES   REMARKS
NWS GREEN BAY  CLOUDY    44  38  79 N10       30.18R
APPLETON       CLOUDY    45  39  81 NE10      30.17R
OSHKOSH        CLOUDY    49  45  86 NE9       30.15R
FOND DU LAC    CLOUDY    47  41  80 E9        30.16R
$$

WIZ022-050-052-181300-
EAST CENTRAL WISCONSIN

CITY           SKY/WX    TMP DP  RH WIND       PRES   REMARKS
STURGEON BAY   PTCLDY    43  36  75 NE9       30.18S
MANITOWOC      CLOUDY    46  42  86 N7        30.17R
SHEBOYGAN      CLOUDY    47  42  83 N8        30.15R
$$

LMZ563-521-522-541>543-181300-
LAKESHORE

STATION/POSITION TIME  TEMP    WIND        PRES    VSBY  WAVE
                       AIR SEA DIR/SP/G                  HT/PER
                 (UTC) (F)     (DEG/KT/KT) (MB)    (MI)  (FT/S)
SHEBOYGAN LKSHOR 1200   48 48  360/ 16/ 18 1021.4R
KEWAUNEE LKSHORE 1200   44     360/  5/  9 1020.5S
NORTHPORT PIER   1200   46      20/  9/ 13 1022.0R
N MID LAKE BUOY  1200   49 57   40/ 14/ 16 1021.9R         2/ 5
S GREEN BAY BUOY 1200   47     VRB 16/ 19  1022.6R
SISTER BAY LKSHO 1100          120/  4/  9   N/A
CHAMBERS ISLAND  1200   46      10/ 11/ 16 1022.4R
MENOMINEE LKSHOR 1200   45     360/ 14/ 17 1022.6R
$$



USA.gov is the U.S. government's official web portal to all federal, state and local government web resources and services.